Starlink 32881

operational
NORAD ID: 62997 Int'l Des: 2025-031 Owner: SPXS Country: US Constellation: starlink
LEOCIRCULAR

关于 Starlink 32881

正在加载描述...

实时位置

正在加载3D地球...

即将过境

高度历史

Altitude vs Time

uPlot chart will show altitude changes over time

两行轨道根数

1 62997U 25031S 25304.85343155 .00031472 00000-0 11469-2 0 9992
2 62997 43.0012 150.7324 0001612 270.3462 89.7205 15.27619530 41398
Epoch: Oct 31, 2025 • Age: 20 hours

当前状态

高度 489.0 km
速度 7.62 km/s
星下点 -27.42°S, 179.31°W
发射日期 Feb 11, 2025
运行时间 0.7 years
类型 internet

技术详情

分类 Payload
质量 730.00 kg
干质量 700.00 kg
总质量 730.00 kg
长度 0.30 m
直径 4.10 m
跨度 29.00 m
形状 Box + pan
制造商 SPXS
平台类型 Starlink V2M
阶段状态 In Orbit
所有者/国家 SPXS/US

大型星座

Loading constellations...